Orbital Elements at Epoch 2459000.5 (2020-May-31.0) TDB
Reference: JPL 20 (heliocentric ecliptic J2000)
Element | Value | Uncertainty (1-sigma) | Units |
e | .09746077445314591 | 3.7657e-08 | |
a | 2.679610417655981 | 1.3548e-08 | au |
q | 2.418453511118511 | 1.0175e-07 | au |
i | 3.896458906427546 | 3.9094e-06 | deg |
node | 242.9961971080037 | 6.4719e-05 | deg |
peri | 73.55809828426274 | 6.8105e-05 | deg |
M | 225.6453277946114 | 2.2995e-05 | deg |
tp | 2459598.438043581709 (2022-Jan-18.93804358) | 0.00010393 | TDB |
period | 1602.160104714108 4.39 | 1.2151e-05 3.327e-08 | d yr |
n | .2246966448239197 | 1.7041e-09 | deg/d |
Q | 2.94076732419345 | 1.4868e-08 | au |
|
| | Orbit Determination Parameters
Additional Information
|